RH
8 10 10 9 10 12 20 27 35 32 24 27 27 28 29 31 35 34 32 27 26 27 25 28 30 33 36 42 48 52 52 60 60 60 54 48 44 44 44 42 61 57 54 58
9 10 7 7 8 10 15 19 30 24 20 21 21 26 23 27 31 31 31 27 27 24 27 26 29 31 36 41 46 53 54 64 64 58 52 45 42 42 42 44 60 57 54 57
8 7 6 7 9 12 14 17 20 21 23 20 19 23 32 23 26 27 27 28 24 26 27 25 27 29 33 41 47 54 57 62 66 55 58 58 51 51 47 54 54 58 58 59
8 6 6 6 9 8 13 13 16 21 21 23 26 32 63 24 26 29 27 26 26 25 25 25 25 28 29 35 46 51 61 63 68 63 56 58 52 48 47 49 50 56 63 62
9 7 6 8 6 6 10 10 13 15 17 18 17 22 28 21 24 26 27 25 24 23 23 26 23 26 27 32 40 49 62 65 63 67 60 60 59 45 49 45 49 53 63 60
10 7 7 7 6 5 6 10 13 13 16 22 16 27 25 25 19 21 22 22 23 25 23 23 24 26 28 31 37 45 61 69 67 69 72 62 57 54 50 50 56 55 50 56
11 9 8 7 6 5 6 9 18 23 21 20 20 30 22 17 17 17 18 19 20 21 23 25 26 27 29 32 36 41 58 69 70 68 70 68 66 62 60 62 56 57 52 48
12 12 8 7 8 9 8 7 13 28 21 16 19 21 16 14 15 16 20 22 22 21 20 24 25 28 31 34 38 39 52 67 69 66 69 71 68 63 62 58 54 48 45 52
10 10 7 7 7 7 9 8 6 11 19 22 34 22 13 13 15 16 21 24 25 23 21 23 25 31 35 37 38 40 48 61 65 63 66 70 72 68 56 55 60 55 56 50
10 13 7 7 6 7 8 8 8 10 24 27 34 23 15 14 14 17 22 24 24 25 23 24 25 28 35 38 38 41 44 55 61 59 62 66 68 71 66 60 60 53 52 54
9 10 10 8 9 10 9 11 9 9 12 13 14 13 10 19 17 19 21 23 23 27 26 25 27 27 32 38 37 43 47 51 56 59 57 59 62 64 69 66 64 65 64 64
10 10 13 10 8 7 8 8 9 12 16 12 13 13 9 11 14 16 22 24 24 25 30 29 29 30 30 35 38 41 46 47 51 55 60 59 60 60 59 66 65 67 69 68
10 12 14 12 10 8 9 9 8 8 8 14 18 12 11 11 11 17 23 25 28 30 32 34 35 36 35 36 39 41 42 46 50 56 59 62 62 62 61 60 63 65 70 72
18 12 13 13 13 10 11 10 9 9 13 12 11 18 15 15 16 18 20 24 28 30 35 36 39 44 46 46 49 50 49 48 53 53 59 60 65 64 60 62 64 64 68 72
13 17 14 11 11 14 11 9 9 11 11 13 16 11 10 14 16 18 21 27 30 36 35 39 43 51 54 56 58 60 57 58 56 60 61 64 65 68 73 63 65 65 70 73
13 18 15 15 11 12 14 9 9 10 10 11 11 19 11 11 11 13 22 29 32 33 34 39 46 52 55 59 60 61 62 63 64 64 65 64 67 74 75 75 74 73 74 74
26 18 18 19 13 12 15 12 10 10 10 11 13 11 9 13 16 15 19 28 32 32 36 41 46 48 55 61 66 69 70 72 73 78 81 83 82 80 80 80 79 79 78 77
26 30 21 19 20 34 12 9 9 10 10 9 10 10 12 16 16 18 18 23 30 33 36 42 46 53 64 62 61 65 66 70 69 69 71 73 74 72 74 78 85 89 87 84
18 31 28 26 27 37 15 14 14 13 12 9 10 12 12 22 24 31 26 25 30 30 35 44 48 56 63 64 74 71 67 67 67 66 71 75 76 77 76 76 76 76 75 83
18 27 34 27 34 39 29 12 10 10 16 10 11 14 16 24 24 20 26 26 28 32 41 47 48 56 61 70 73 72 65 64 64 75 76 80 85 88 86 85 86 84 82 78
27 29 38 31 31 29 20 18 12 18 18 11 13 14 16 23 31 34 31 32 33 37 45 47 49 53 60 69 67 75 67 75 77 81 83 89 97 98 96 97 98 99 93 82
32 38 30 38 38 30 16 17 16 20 15 12 12 15 16 22 38 36 34 37 36 41 49 50 51 58 78 74 81 75 77 77 83 80 84 96 96 99 99 100 99 99 100 100
38 25 23 24 24 28 26 16 12 14 17 17 18 20 19 24 31 32 35 37 40 42 44 45 49 73 81 84 82 76 82 83 73 78 84 90 92 99 100 100 99 100 100 100
42 23 21 30 22 22 19 17 13 15 16 19 18 21 20 26 28 31 34 36 42 49 57 62 66 73 82 82 79 82 81 78 79 80 80 88 91 100 99 100 99 100 100 100
70 35 25 28 27 29 26 18 20 18 20 22 22 24 25 25 31 32 40 48 50 54 56 59 61 66 72 80 80 81 76 77 77 77 68 75 92 100 100 100 99 100 100 100
57 36 26 26 28 36 33 23 22 27 28 29 31 32 32 30 35 41 47 52 55 61 66 69 71 76 82 80 83 72 72 75 72 65 68 74 87 99 99 100 100 100 100 100
Wind_Speed
16 14 16 19 16 13 6 8 5 12 7 3 7 7 11 15 14 13 16 15 15 15 17 21 17 18 16 18 18 18 17 17 17 17 16 14 14 13 13 12 10 10 10 10
13 18 18 15 11 13 7 11 14 13 3 6 8 9 10 15 16 19 16 15 15 17 14 20 21 20 20 18 19 19 19 19 18 15 14 13 14 14 14 11 11 11 9 10
19 10 17 15 10 12 15 15 7 3 6 11 12 14 6 16 14 13 18 17 18 18 18 18 20 20 20 21 20 20 20 20 19 15 13 9 10 6 12 11 11 12 11 10
14 18 8 14 14 17 16 14 9 7 7 8 4 10 12 16 16 16 15 16 18 17 20 16 20 21 23 22 22 21 21 21 20 18 15 14 13 14 13 14 14 15 12 11
15 15 16 16 17 18 17 12 12 10 12 12 15 9 13 14 15 18 18 19 19 18 21 17 20 24 21 23 23 23 23 22 21 22 17 16 15 14 10 13 11 11 11 11
17 7 12 17 17 13 17 16 10 12 13 14 13 12 9 8 11 13 17 18 18 22 19 17 21 21 21 22 23 24 24 25 23 22 21 18 15 18 11 12 10 13 14 13
15 20 12 14 17 18 16 17 12 13 12 13 7 2 6 10 6 3 8 12 16 17 20 20 20 19 23 23 24 25 25 25 25 24 21 22 19 17 14 8 10 13 15 14
12 15 21 16 17 16 15 21 14 18 10 9 13 8 6 13 6 5 3 5 11 17 17 19 19 22 20 23 25 25 26 24 24 24 24 22 22 19 18 16 16 14 13 9
10 11 19 18 16 19 15 18 23 23 7 9 11 10 11 8 9 9 8 3 10 14 17 18 19 23 23 22 24 25 26 25 25 25 24 23 22 22 19 17 20 18 12 11
16 13 10 15 17 20 21 13 18 16 20 12 13 23 2 11 12 10 5 7 7 9 14 17 16 23 22 23 25 23 24 25 24 24 24 23 23 22 21 17 18 16 16 18
16 12 12 16 16 16 12 14 14 20 12 11 11 9 14 16 12 9 9 8 12 11 12 13 13 18 24 21 22 23 21 21 22 23 24 23 23 22 21 21 21 21 19 16
17 10 13 19 16 19 19 18 15 10 13 10 10 6 9 16 14 10 15 9 7 11 10 10 11 14 16 18 18 19 19 22 22 21 21 22 22 22 22 22 22 22 22 21
11 13 14 18 17 14 15 15 19 19 15 14 9 10 13 8 10 15 13 10 9 9 10 10 10 10 11 13 13 13 16 17 18 20 20 20 21 21 22 22 23 22 22 21
10 16 16 14 15 17 22 22 21 18 11 13 12 12 7 8 8 10 10 11 10 10 10 10 10 10 10 11 11 11 12 13 16 17 18 20 21 20 21 22 22 22 23 22
12 18 17 22 8 20 17 19 23 22 17 13 10 11 12 16 14 15 12 10 10 10 11 10 10 9 10 10 9 8 9 10 12 14 16 21 20 18 20 20 20 21 20 23
15 16 19 23 24 15 18 18 20 18 14 17 13 12 7 7 11 14 18 15 11 12 11 11 11 10 11 11 9 8 8 8 9 11 13 15 16 20 20 22 22 23 24 25
14 13 16 21 21 17 17 17 16 13 13 14 15 9 9 11 6 8 11 14 13 11 11 11 10 10 10 10 9 8 6 5 5 5 5 6 6 9 17 22 25 26 25 26
14 13 12 16 15 20 15 18 14 13 11 12 10 12 3 5 6 8 7 14 11 10 10 9 9 10 9 9 8 6 6 4 3 2 2 4 6 9 12 14 18 20 24 26
19 11 9 13 9 13 19 7 14 8 10 11 11 7 7 5 5 3 3 0 8 8 8 8 9 10 8 8 6 5 5 4 2 1 3 7 9 12 14 16 19 21 23 26
19 15 9 9 15 19 24 16 10 4 10 11 9 10 10 9 10 8 12 9 9 9 10 9 10 10 9 7 6 5 5 3 2 5 7 10 13 15 18 19 20 22 23 27
14 14 16 17 15 23 15 10 6 9 2 10 10 9 10 10 6 11 9 8 8 9 9 8 9 7 5 7 6 5 5 7 5 6 9 11 12 15 18 20 21 21 25 27
18 14 14 18 21 17 17 21 11 8 8 7 3 7 6 8 9 9 8 7 7 7 10 7 7 7 6 5 7 7 7 7 6 7 10 12 15 15 15 17 22 24 26 25
13 19 15 13 15 10 10 13 7 6 8 6 5 6 5 7 8 7 6 5 5 3 6 5 5 9 7 7 7 8 11 6 8 10 12 13 16 18 18 17 17 19 17 22
27 4 11 7 4 2 15 6 11 5 9 6 5 8 6 7 5 5 4 4 4 2 5 5 8 9 9 8 10 9 10 9 10 9 12 13 16 15 21 24 19 18 14 10
3 12 14 16 6 4 18 4 8 7 8 7 5 5 4 3 5 4 4 4 5 6 7 8 9 9 10 10 10 13 12 11 8 8 11 13 15 17 21 30 26 21 21 9
12 14 11 11 12 5 14 8 7 9 8 8 8 7 4 3 5 6 7 7 7 6 7 7 7 9 11 13 12 15 13 13 9 10 12 14 15 15 29 22 25 33 31 28
Wind_Direction
203 218 223 228 229 268 267 191 74 332 116 222 235 252 175 168 189 195 214 177 188 192 178 168 187 167 171 172 174 176 179 166 180 176 184 190 191 185 189 188 143 178 194 195
183 230 239 241 242 244 247 244 173 180 192 238 256 237 199 168 193 182 219 179 205 208 171 174 180 180 179 179 181 183 183 176 188 191 199 193 195 185 190 193 168 195 192 197
229 226 227 243 223 243 235 251 185 182 192 240 255 246 277 173 186 205 186 198 201 207 172 188 180 191 184 176 187 186 190 184 189 196 195 193 201 206 199 185 184 199 203 208
230 251 215 242 229 234 242 215 264 211 249 280 222 276 190 201 171 189 203 205 201 203 178 191 187 193 190 184 190 186 190 190 193 194 195 194 201 201 203 210 205 191 199 218
228 229 215 230 235 234 249 259 228 205 249 274 259 258 140 204 177 186 203 200 199 219 184 190 190 185 199 185 188 188 188 192 193 196 209 198 221 216 229 222 180 202 186 212
260 237 237 237 234 240 246 250 256 247 241 244 229 208 139 212 189 178 186 201 206 195 201 218 189 188 192 182 189 185 185 190 194 195 204 209 208 236 212 225 199 196 224 202
213 241 214 249 221 219 223 225 225 223 222 236 81 98 236 145 158 188 190 185 197 207 190 195 191 199 183 181 187 184 186 192 194 196 200 207 212 220 238 235 239 251 219 228
209 208 220 208 237 209 218 220 228 214 225 239 163 208 156 169 124 161 233 225 188 193 194 193 189 189 189 188 189 189 185 194 197 200 201 205 209 212 219 219 230 235 225 223
270 231 188 211 206 239 198 229 242 258 241 217 231 307 153 165 184 194 176 194 180 186 193 181 189 175 197 198 190 192 183 195 198 203 205 206 207 214 217 223 209 235 243 239
256 265 229 180 215 217 251 232 232 247 258 244 173 203 4 158 200 178 146 171 146 164 179 171 185 178 181 196 192 195 194 196 201 203 206 210 213 214 218 219 222 224 226 225
235 252 253 201 204 220 210 244 234 255 249 267 261 264 166 172 193 171 158 135 135 145 165 167 177 187 175 191 192 200 196 199 201 205 209 213 214 217 218 221 220 218 220 226
215 246 240 209 202 227 228 217 238 240 228 278 306 307 5 159 165 181 141 135 118 132 146 167 168 181 181 181 193 187 208 201 208 207 207 213 219 219 218 221 225 226 224 219
242 230 242 244 197 221 240 243 224 227 237 245 248 248 146 158 222 160 161 133 143 134 140 149 159 168 187 187 194 207 206 213 207 219 208 217 218 221 226 227 228 232 230 231
313 261 235 234 213 202 207 233 249 248 236 243 238 131 180 170 185 171 164 152 147 137 145 144 147 153 166 172 184 201 204 209 211 208 216 220 221 227 228 228 232 230 230 231
250 257 258 259 239 263 252 202 224 231 254 259 360 256 193 168 184 192 167 162 160 155 152 148 141 142 150 159 169 185 196 199 207 211 218 219 223 222 229 231 230 232 234 230
239 245 254 257 268 215 262 203 211 218 244 263 255 201 261 91 167 197 165 168 186 177 160 155 146 149 150 150 158 162 171 185 207 220 225 233 231 222 225 234 233 236 239 233
290 264 237 246 250 240 235 245 209 200 222 247 256 247 291 151 192 242 180 159 193 181 164 162 153 153 146 150 153 158 166 173 187 216 244 282 284 252 250 250 247 238 238 235
241 258 259 250 241 253 228 229 244 220 226 231 243 274 335 321 186 212 223 190 167 177 171 163 154 151 148 152 139 146 154 154 169 199 274 293 288 278 276 269 260 255 246 239
237 236 252 247 220 234 259 164 221 235 246 267 251 248 236 96 100 106 135 20 150 179 158 159 160 155 156 147 139 147 158 150 158 94 340 326 313 298 285 273 268 265 260 253
228 188 251 246 221 215 251 199 175 255 248 234 201 216 167 173 218 197 161 161 146 147 144 158 153 157 165 147 152 160 156 175 89 13 351 339 325 312 299 288 276 267 264 262
206 198 201 241 257 223 88 56 167 207 80 174 171 202 182 189 43 108 132 135 142 139 146 161 156 159 159 165 155 177 184 83 38 12 2 352 339 321 307 298 292 277 267 259
194 192 194 209 246 250 108 178 202 99 111 83 113 171 186 126 125 149 142 150 144 149 140 186 174 155 159 176 163 180 106 92 68 35 18 7 356 342 320 304 302 294 274 252
244 199 194 195 232 343 100 250 167 116 121 128 139 117 163 183 165 182 169 164 160 180 196 193 167 105 145 174 189 143 114 111 73 51 37 28 16 8 354 335 326 319 292 245
229 209 208 164 169 314 262 142 147 137 131 140 157 145 174 174 178 196 216 185 132 158 143 143 146 162 155 178 178 144 121 120 90 71 52 40 29 23 22 18 14 360 13 37
293 292 193 197 191 31 284 215 140 149 124 142 106 144 162 183 163 199 142 143 147 162 183 185 193 181 171 176 178 140 134 132 113 98 72 60 47 46 46 40 35 40 46 66
222 253 210 187 185 142 283 189 164 141 158 154 145 140 137 170 142 147 135 134 134 151 159 166 173 170 171 181 173 158 142 130 140 123 88 82 73 63 70 44 45 65 72 77